Location: Boursonne
(49.2024°N, 3.0468°E)
Time: 22:07:57
(UTC+00:00)

Cosmos 2333 Rocket - Pass Details

Date: 03 March 2021
Orbit: 837 x 864 km, 70.8° (Epoch: 20 April)

Event Time Altitude Azimuth Distance (km) Brightness Sun altitude
Rises 18:47:40 0° 170° (S) 3,387 5.2 -12.8°
Reaches altitude 10° 18:50:26 10° 159° (SSE) 2,461 4.4 -13.2°
Maximum altitude 18:55:04 27° 103° (ESE) 1,587 3.0 -14.0°
Drops below altitude 10° 18:59:45 10° 48° (NE) 2,491 4.3 -14.7°
Sets 19:02:33 0° 37° (NE) 3,436 5.1 -15.2°
